Temp
20 20 20 19 19 19 19 19 19 19 19 19 18 18 18 18 18 18 18 18 17 17 17 16 16 16 16 16 17 17 17 17 16 15 15 16 16 17 16 16 16 16 16
21 20 20 19 19 19 19 19 19 19 19 18 18 18 18 18 18 18 18 18 18 17 17 17 17 17 17 17 17 17 17 17 17 17 17 17 17 17 17 16 16 16 16
21 20 20 20 19 19 19 19 19 19 18 18 18 18 18 18 18 18 18 18 18 18 17 17 17 17 17 17 17 17 17 17 17 17 17 17 17 17 17 17 17 16 16
21 20 20 19 19 19 19 18 18 19 18 18 18 18 18 18 18 18 19 18 18 18 18 17 17 17 17 17 16 17 17 17 17 17 17 17 17 17 17 17 17 17 17
21 20 20 19 19 19 19 19 18 18 19 18 18 18 18 18 18 18 18 18 18 18 18 18 17 17 17 17 17 17 17 17 17 17 17 17 17 17 17 17 17 17 17
21 20 20 19 19 19 19 19 19 18 19 18 18 18 18 18 18 18 18 18 18 18 17 17 17 17 17 16 16 16 17 16 16 17 17 17 17 17 17 17 17 17 17
21 20 20 19 19 19 19 19 19 19 18 18 18 18 19 18 18 18 18 18 18 17 17 17 17 16 16 16 16 16 16 16 17 17 17 17 17 17 17 17 17 17 17
22 21 20 19 19 19 19 19 19 19 19 18 18 18 18 18 18 18 18 18 18 18 17 17 17 16 16 16 15 16 16 16 16 17 17 17 17 17 17 17 17 17 17
22 21 20 19 19 19 19 19 19 19 19 19 18 18 18 18 18 18 18 18 18 18 17 17 17 17 16 16 16 16 17 17 17 17 16 17 17 17 17 18 17 17 17
22 21 20 20 19 19 19 19 19 19 19 19 19 18 18 18 18 18 18 18 18 18 18 18 17 17 16 16 16 16 16 16 16 17 17 17 17 17 17 17 18 18 17
21 21 20 20 20 19 19 19 19 19 19 19 19 19 19 18 18 18 18 18 18 18 18 18 17 17 17 17 16 16 16 16 16 17 17 17 17 17 17 17 17 18 18
22 22 21 21 20 20 19 19 19 19 19 19 19 19 19 19 19 18 18 18 18 18 18 18 17 17 17 17 17 17 17 16 16 17 17 17 17 17 17 17 17 17 17
23 22 22 22 21 21 20 19 19 19 19 19 19 19 19 19 18 18 18 18 18 18 18 18 18 18 18 17 17 17 17 17 17 17 17 17 17 16 16 16 16 16 16
23 23 23 22 22 21 21 20 20 20 19 19 19 19 19 19 19 19 19 19 18 18 18 18 18 18 18 18 18 17 17 17 17 17 17 17 17 16 16 16 16 16 16
23 23 23 22 22 22 21 21 21 20 20 20 20 19 19 19 19 19 19 19 19 19 18 18 18 18 18 18 18 18 17 17 17 17 17 17 17 17 16 16 16 16 16
23 23 23 22 22 22 22 22 21 21 21 20 20 20 20 19 19 19 19 19 19 19 19 19 18 18 18 18 18 18 18 18 17 17 18 17 17 16 16 17 16 16 16
23 23 23 23 22 22 22 22 22 21 21 21 20 20 20 20 19 19 19 19 19 19 19 19 18 18 18 18 18 18 18 18 18 17 17 17 17 17 17 17 17 17 16
22 22 22 22 22 22 22 22 22 21 21 21 21 20 20 20 20 20 20 20 19 19 19 19 19 19 19 18 19 19 18 18 18 18 17 17 17 17 17 17 17 17 17
22 22 22 22 22 22 22 22 22 22 21 21 21 21 20 20 20 19 20 20 19 19 19 18 18 18 19 19 19 19 19 18 18 18 18 17 17 17 17 18 17 17 17
23 22 22 22 23 21 21 21 21 21 21 21 21 21 20 20 20 20 19 20 19 19 18 18 18 18 18 18 18 18 18 18 18 18 18 18 18 18 18 18 17 17 17
23 23 22 21 22 22 21 21 21 21 21 21 21 21 20 20 20 20 20 20 20 19 20 19 18 18 18 17 17 17 18 18 18 19 19 19 19 19 18 18 18 17 17
23 24 23 23 21 22 23 23 22 21 21 21 21 21 21 20 20 20 20 20 20 20 19 19 18 18 18 17 16 16 16 18 19 20 20 20 20 19 19 19 18 18 18
23 24 24 24 23 23 23 22 21 20 20 20 21 21 21 20 20 20 19 19 19 19 19 19 19 18 17 17 16 15 15 16 18 20 20 20 20 20 20 20 19 18 18
24 26 25 25 24 24 22 21 22 23 23 24 23 23 22 21 21 20 20 19 19 19 19 19 19 18 17 17 16 16 16 16 16 17 19 19 19 19 19 19 19 18 17
24 24 25 25 25 25 23 22 23 23 25 25 24 23 23 23 22 22 21 21 20 20 19 19 18 18 18 17 17 16 16 16 16 15 15 18 18 19 18 18 17 17 17
24 24 24 24 25 25 24 24 23 23 24 24 24 24 24 24 24 23 23 22 21 20 21 20 19 19 18 18 17 17 17 16 16 16 15 17 16 18 18 18 18 17 17
Height
1509 1513 1517 1521 1525 1527 1528 1529 1530 1531 1533 1535 1537 1539 1541 1542 1543 1544 1546 1547 1549 1550 1551 1552 1553 1554 1555 1556 1556 1557 1558 1558 1559 1560 1560 1560 1560 1561 1561 1562 1563 1563 1564
1507 1512 1516 1521 1524 1526 1528 1530 1532 1533 1534 1536 1538 1540 1542 1543 1545 1546 1548 1549 1550 1552 1553 1554 1555 1556 1557 1558 1559 1560 1561 1561 1562 1562 1562 1563 1564 1565 1566 1566 1566 1566 1567
1508 1512 1516 1520 1524 1527 1529 1531 1532 1534 1536 1538 1540 1542 1544 1545 1547 1548 1550 1551 1552 1553 1555 1556 1557 1558 1559 1560 1561 1562 1563 1564 1565 1565 1566 1566 1567 1568 1568 1569 1569 1570 1570
1508 1512 1516 1520 1524 1528 1530 1531 1533 1535 1537 1539 1541 1543 1545 1547 1548 1550 1551 1553 1554 1555 1557 1558 1559 1561 1562 1563 1564 1565 1566 1566 1567 1568 1569 1569 1570 1571 1571 1572 1572 1572 1573
1508 1513 1517 1520 1524 1528 1530 1532 1534 1536 1537 1540 1542 1544 1546 1548 1549 1551 1552 1554 1556 1558 1559 1560 1562 1563 1565 1566 1567 1568 1569 1569 1570 1570 1571 1572 1572 1573 1573 1573 1573 1574 1574
1509 1513 1517 1521 1525 1528 1530 1532 1534 1537 1539 1541 1544 1545 1548 1550 1551 1552 1554 1556 1557 1559 1560 1562 1564 1565 1567 1569 1570 1570 1571 1572 1573 1573 1574 1574 1575 1575 1575 1576 1576 1576 1576
1509 1513 1517 1521 1525 1528 1530 1532 1534 1537 1539 1542 1544 1546 1548 1550 1552 1554 1556 1558 1559 1561 1563 1564 1565 1567 1569 1570 1571 1572 1573 1574 1575 1575 1576 1576 1577 1577 1577 1577 1577 1577 1577
1509 1513 1517 1522 1525 1528 1530 1533 1535 1537 1539 1542 1545 1547 1549 1551 1553 1555 1557 1559 1561 1563 1565 1567 1568 1570 1571 1572 1573 1574 1575 1576 1577 1577 1577 1577 1577 1578 1579 1579 1578 1578 1578
1511 1513 1517 1521 1525 1528 1530 1533 1535 1537 1539 1542 1545 1548 1549 1551 1553 1555 1557 1559 1561 1564 1566 1568 1569 1571 1572 1574 1575 1576 1577 1578 1578 1579 1579 1578 1578 1578 1579 1579 1579 1579 1579
1511 1514 1516 1520 1523 1527 1530 1532 1535 1537 1540 1542 1545 1547 1550 1552 1554 1556 1558 1560 1562 1564 1566 1568 1570 1572 1574 1575 1576 1577 1578 1578 1579 1579 1579 1579 1579 1579 1579 1580 1580 1580 1579
1509 1512 1515 1518 1522 1525 1528 1531 1534 1537 1539 1542 1544 1547 1549 1551 1554 1556 1558 1560 1562 1564 1566 1569 1570 1572 1574 1575 1576 1577 1578 1578 1578 1578 1579 1579 1579 1580 1580 1580 1580 1580 1580
1504 1507 1512 1516 1519 1523 1527 1529 1532 1535 1538 1540 1542 1545 1548 1551 1553 1556 1558 1560 1562 1564 1566 1568 1570 1572 1573 1575 1576 1577 1578 1578 1578 1578 1578 1579 1579 1580 1581 1580 1581 1581 1581
1499 1504 1508 1512 1517 1520 1524 1527 1530 1533 1535 1538 1541 1544 1547 1549 1552 1554 1557 1559 1561 1563 1565 1567 1569 1571 1572 1574 1575 1576 1577 1577 1578 1578 1578 1578 1579 1579 1580 1580 1580 1580 1580
1494 1501 1505 1509 1513 1517 1521 1524 1527 1530 1533 1536 1539 1542 1545 1547 1549 1552 1555 1557 1560 1562 1564 1566 1568 1570 1571 1572 1574 1575 1576 1576 1577 1577 1577 1578 1578 1578 1579 1579 1579 1579 1578
1492 1496 1501 1505 1509 1514 1517 1521 1525 1528 1531 1534 1537 1540 1543 1545 1548 1550 1553 1555 1558 1560 1562 1564 1566 1568 1569 1571 1572 1573 1574 1575 1575 1576 1576 1576 1576 1577 1577 1577 1577 1577 1576
1492 1493 1498 1502 1506 1510 1514 1518 1521 1525 1529 1532 1536 1538 1541 1544 1547 1549 1551 1553 1556 1558 1560 1562 1564 1566 1568 1569 1570 1571 1573 1573 1573 1573 1574 1574 1574 1574 1574 1574 1574 1574 1574
1487 1491 1493 1498 1503 1506 1510 1515 1518 1522 1526 1529 1533 1536 1539 1541 1544 1547 1549 1551 1554 1556 1558 1560 1562 1563 1564 1566 1567 1568 1569 1570 1570 1571 1571 1571 1571 1570 1570 1570 1570 1570 1570
1489 1489 1492 1495 1498 1502 1506 1510 1515 1518 1522 1525 1529 1533 1536 1539 1541 1543 1546 1548 1551 1554 1556 1557 1559 1560 1561 1562 1563 1564 1565 1566 1566 1567 1567 1567 1566 1566 1566 1566 1566 1566 1565
1484 1486 1487 1490 1493 1497 1502 1506 1510 1514 1517 1521 1525 1528 1531 1534 1537 1539 1542 1545 1548 1550 1551 1553 1555 1556 1557 1558 1559 1560 1561 1561 1561 1562 1562 1562 1562 1562 1561 1562 1561 1561 1561
1479 1482 1486 1488 1488 1493 1499 1502 1506 1509 1512 1515 1519 1522 1526 1529 1532 1535 1537 1540 1544 1546 1547 1549 1550 1552 1553 1555 1556 1556 1557 1557 1556 1556 1555 1556 1556 1556 1557 1556 1556 1556 1556
1471 1476 1479 1482 1483 1486 1490 1493 1496 1497 1503 1507 1511 1516 1520 1524 1527 1529 1532 1534 1537 1539 1541 1544 1546 1548 1549 1551 1553 1551 1550 1551 1550 1549 1549 1548 1548 1549 1551 1551 1551 1551 1551
1462 1465 1471 1474 1477 1478 1481 1484 1489 1493 1497 1503 1507 1510 1513 1516 1520 1523 1525 1527 1530 1533 1535 1537 1540 1542 1543 1546 1548 1549 1546 1544 1541 1541 1542 1542 1542 1543 1543 1544 1545 1545 1545
1453 1454 1459 1463 1467 1470 1473 1477 1484 1490 1493 1496 1498 1501 1503 1508 1513 1516 1519 1521 1524 1527 1528 1530 1533 1535 1537 1540 1543 1548 1545 1539 1537 1536 1536 1536 1537 1537 1538 1539 1539 1540 1540
1443 1445 1447 1451 1456 1461 1466 1469 1470 1473 1476 1479 1485 1491 1496 1501 1505 1508 1512 1515 1517 1521 1522 1523 1526 1529 1533 1533 1535 1537 1539 1537 1537 1533 1531 1531 1531 1532 1533 1535 1535 1535 1535
1438 1437 1438 1441 1445 1451 1455 1459 1461 1464 1467 1473 1477 1482 1488 1492 1496 1500 1504 1507 1510 1512 1515 1517 1519 1521 1524 1528 1528 1529 1531 1532 1533 1532 1526 1522 1524 1525 1527 1528 1529 1529 1529
1425 1427 1428 1430 1431 1439 1442 1449 1453 1456 1460 1463 1467 1472 1477 1482 1487 1491 1495 1498 1501 1504 1507 1510 1513 1515 1517 1519 1521 1521 1522 1524 1523 1525 1525 1518 1519 1516 1519 1521 1521 1521 1521
Wind_Speed
33 32 28 25 23 21 19 16 16 17 18 19 22 21 19 18 16 15 16 16 18 19 18 17 15 14 15 17 18 17 18 20 20 21 20 21 20 21 21 21 20 20 19
36 33 29 26 25 23 20 18 17 18 19 21 22 21 18 17 16 17 16 17 18 18 18 18 17 18 19 20 20 20 20 19 19 19 20 21 20 19 18 17 18 18 18
35 33 30 28 26 24 23 20 19 18 20 22 22 20 17 17 17 17 17 18 19 19 20 20 20 21 21 21 22 21 21 20 19 18 18 18 18 17 16 15 15 16 15
34 33 30 29 27 25 24 22 21 21 21 22 21 19 18 19 19 19 18 18 19 20 21 21 21 21 21 21 21 21 20 19 18 16 15 15 16 15 14 13 13 13 13
32 32 31 30 28 26 25 23 22 21 23 23 22 20 19 20 20 20 19 19 20 20 20 20 20 21 21 20 20 19 18 18 16 15 13 12 12 12 11 11 10 10 9
31 32 31 30 29 27 26 24 23 22 22 24 23 21 19 19 19 20 20 20 21 21 21 21 22 21 20 18 17 16 17 16 14 13 12 10 9 8 8 7 7 6 7
32 31 31 31 30 28 26 25 23 23 23 23 23 21 20 19 19 19 19 19 20 20 20 21 22 21 19 17 15 13 14 13 14 13 10 10 8 7 6 4 4 4 4
30 32 31 31 30 28 27 25 24 23 23 23 22 21 20 19 19 18 18 18 19 20 19 19 20 18 16 15 12 11 10 13 12 12 11 9 7 5 5 4 2 2 2
30 32 32 32 30 28 27 25 24 23 23 23 23 21 20 19 19 19 19 19 19 19 19 19 19 18 18 15 12 10 10 9 7 6 5 6 7 7 5 6 4 4 3
31 32 32 32 31 30 28 26 24 23 23 23 23 22 20 19 18 19 18 18 18 18 18 18 18 18 17 15 12 10 7 4 2 1 1 2 3 7 7 7 6 5 3
34 34 34 33 32 31 29 28 25 24 23 23 23 22 22 20 19 19 18 18 18 18 18 17 17 17 16 16 14 13 9 7 2 2 4 3 2 4 7 7 7 7 6
39 37 36 35 34 33 31 30 28 27 26 25 25 25 23 22 20 20 19 18 18 18 18 18 17 17 17 18 17 15 12 7 5 3 0 5 4 4 5 6 8 8 8
41 39 38 36 35 35 34 33 31 30 28 27 26 25 24 23 22 22 21 21 20 20 19 19 18 18 18 19 20 18 15 11 8 7 5 5 6 6 7 8 8 9 10
44 41 39 38 37 36 35 34 33 32 31 29 28 27 26 25 24 23 22 21 21 20 20 19 17 18 18 19 21 22 20 17 14 12 10 8 8 9 10 10 11 11 12
45 43 41 40 38 37 37 35 34 33 31 29 28 28 27 26 25 24 23 23 21 21 20 19 18 17 18 19 21 23 24 20 19 16 14 13 12 13 14 14 14 15 15
45 45 43 42 40 39 38 37 35 33 31 30 29 28 28 27 25 25 24 23 22 21 19 19 18 18 17 18 20 22 23 21 20 20 19 16 17 18 20 21 21 20 19
47 45 45 44 42 41 39 38 37 35 33 32 31 30 29 28 27 26 24 24 23 21 20 20 20 20 21 21 22 23 24 23 23 22 21 20 21 23 26 27 26 25 23
44 46 45 45 45 43 42 40 39 37 36 34 33 32 31 30 28 28 27 26 24 23 22 23 22 23 24 24 24 24 25 25 25 25 26 26 26 26 26 26 26 27 26
45 44 46 46 47 46 44 42 41 39 38 37 35 34 33 32 31 31 29 28 26 26 26 25 24 24 25 26 26 25 26 26 26 26 27 26 26 26 25 24 23 22 23
45 46 45 46 47 48 46 44 43 42 41 40 39 38 36 35 34 33 33 31 29 29 28 28 29 27 26 24 24 26 25 25 27 29 30 28 27 27 26 25 23 22 22
49 47 48 48 49 48 51 51 49 49 46 44 42 40 39 38 37 36 36 35 34 33 32 30 29 30 30 29 26 29 30 29 30 31 30 30 29 28 26 26 25 24 22
54 51 50 50 51 50 51 52 52 50 48 45 43 41 41 41 39 39 39 38 37 37 36 36 34 34 34 32 31 31 32 33 33 31 31 30 29 29 28 27 25 23 22
54 56 55 53 53 53 50 52 53 52 49 48 46 45 43 40 40 39 38 39 38 37 38 38 37 37 37 36 35 30 11 16 22 23 19 19 18 19 20 21 21 20 22
55 55 59 58 57 57 55 55 54 54 54 52 50 47 45 43 40 40 39 39 38 37 38 39 39 39 38 40 40 39 39 40 24 25 25 18 20 22 18 17 18 18 20
51 59 60 63 63 61 61 59 57 55 50 48 51 49 47 44 43 42 41 40 39 39 39 39 41 41 42 42 44 44 43 42 44 47 42 46 41 38 34 31 27 27 29
26 49 60 65 67 68 66 63 62 58 55 54 51 51 47 45 44 44 42 42 42 42 41 41 41 42 42 43 44 47 49 45 45 46 48 54 51 51 46 40 36 32 27
Wind_Direction
172 165 162 163 163 157 152 145 138 136 135 135 140 143 142 137 132 129 131 129 130 128 128 124 118 113 115 114 111 111 111 110 110 108 108 105 103 103 105 102 99 96 95
167 165 163 165 167 162 156 150 144 141 140 137 137 136 135 133 131 134 135 132 132 131 126 122 118 117 117 115 113 110 108 108 108 106 106 102 100 100 100 99 101 96 94
168 165 165 167 170 166 160 155 149 147 146 143 141 137 134 133 134 137 134 130 127 127 126 124 123 121 120 118 116 114 110 106 104 104 101 101 102 103 103 98 93 99 96
168 167 168 168 170 169 163 157 154 152 153 151 149 144 142 140 137 138 135 131 129 129 128 126 126 125 123 122 119 116 113 109 104 97 96 96 97 98 97 95 93 87 89
169 168 168 168 171 172 166 160 157 155 156 157 156 152 148 145 143 141 138 136 133 131 131 131 131 129 127 125 121 116 108 102 97 96 90 87 84 88 88 91 92 92 90
170 169 169 169 173 173 169 164 160 158 159 161 162 157 152 149 147 145 143 142 141 140 140 139 137 135 132 126 122 118 106 96 90 88 84 79 77 78 83 88 94 98 97
169 168 169 171 174 174 171 167 163 161 160 164 165 161 158 156 153 149 147 146 146 144 144 146 145 143 138 132 126 121 113 101 98 91 83 78 68 60 58 69 81 94 104
170 168 171 173 175 175 174 170 166 164 163 166 168 166 163 160 157 153 151 149 149 149 150 153 152 148 144 138 131 124 114 110 101 93 84 77 73 62 39 35 51 70 83
174 170 172 174 177 177 176 173 171 168 167 168 171 173 168 166 163 160 158 157 156 155 157 160 162 158 157 152 148 140 128 116 96 85 75 72 60 52 38 22 13 14 8
178 176 175 176 179 179 178 177 176 173 171 171 174 176 175 173 171 168 166 165 164 163 163 166 168 169 169 166 165 162 149 136 76 35 66 64 45 35 29 18 6 358 348
183 181 180 180 182 182 182 180 180 179 177 176 178 180 180 179 177 176 174 173 172 171 172 174 176 178 180 179 179 178 178 176 217 292 306 241 243 358 8 5 352 346 337
188 186 186 185 185 184 185 185 184 183 184 183 184 185 184 183 183 182 182 182 182 181 181 182 184 186 189 190 189 191 194 204 221 245 135 215 234 279 320 334 330 327 323
190 190 190 189 189 188 189 189 189 189 189 189 190 191 188 188 188 189 189 189 189 189 189 190 191 192 193 195 196 200 210 216 233 238 238 233 245 260 284 303 311 314 311
193 194 193 194 193 193 194 195 195 194 194 194 193 194 195 194 194 195 196 197 197 197 197 197 196 196 198 200 202 205 211 219 233 238 245 254 260 262 273 289 297 305 310
196 196 197 197 198 198 198 199 200 200 200 199 199 198 201 202 202 200 201 203 204 205 205 205 205 205 206 206 207 210 214 228 242 249 249 259 269 271 273 280 285 292 296
202 201 200 201 202 203 204 204 205 205 204 204 205 206 207 208 210 210 209 209 210 212 213 215 216 218 217 217 217 218 222 232 247 256 260 262 269 274 276 279 281 284 286
206 205 205 204 204 207 208 209 210 210 209 209 209 211 213 213 214 217 218 218 217 218 220 223 225 227 228 228 231 232 238 245 250 257 265 269 271 273 275 277 280 280 281
213 211 209 208 209 209 211 212 213 214 215 214 215 215 217 218 219 221 223 225 225 224 227 230 231 234 237 238 242 244 248 253 257 260 265 268 271 274 276 278 281 281 283
221 218 213 212 214 213 213 215 217 218 219 220 219 220 222 224 224 226 227 228 229 230 232 235 237 240 244 247 250 254 254 255 258 261 263 263 266 269 273 275 278 282 283
228 226 223 219 217 217 218 217 219 221 222 224 224 224 224 226 230 230 232 233 233 234 236 237 241 243 250 255 257 260 261 260 260 260 262 264 265 267 270 270 273 276 281
236 230 228 224 223 218 219 220 220 221 221 224 225 227 228 229 230 232 236 237 236 237 240 243 245 247 249 252 259 260 262 263 263 264 267 270 270 270 269 268 273 277 280
238 237 231 230 227 223 221 224 224 224 225 227 227 228 230 230 231 234 235 238 238 239 240 241 242 248 251 252 252 261 273 274 270 272 275 276 278 278 276 275 276 280 281
239 240 237 234 230 228 225 222 225 227 229 228 230 229 230 229 229 231 234 237 239 241 244 246 246 247 252 255 254 249 254 254 284 288 284 281 280 275 276 276 272 271 275
240 242 242 240 234 232 226 223 222 224 224 228 228 229 229 230 229 231 234 236 242 243 245 249 252 252 253 256 259 255 252 257 270 287 282 281 280 281 285 282 266 266 275
247 242 242 242 239 234 231 227 226 224 228 232 228 228 230 232 233 233 233 237 240 243 246 249 254 253 255 256 258 260 260 261 263 261 274 278 279 279 278 281 278 278 283
256 238 241 239 240 236 233 230 229 229 229 227 229 229 229 230 232 235 238 239 242 245 249 252 254 258 260 261 260 262 261 259 262 263 261 272 274 283 283 283 281 282 280